[[{"header":{"parameterUnit":"m.s-1","parameterCategory":1,"la1":30.2991,"la2":30.254,"lo1":-89.0895,"lo2":-89.0444,"dy":0.0017,"dx":0.0017,"nx":28,"ny":28,"refTime":"2023-11-15T03:00:00:Z","depth":0,"parameterNumber":2,"parameterNumberName":"U-component_of_WINDS"},"data":[0,0,0,0,0,0,0,0,0,0,0,0,0,0,0,0,0,0,0,0,0,0,0,0,0,0,0,0,0,0,0,0,0,0,0,0,0,0,0,0,0,0,0,0,0,0,0,0,0,0,0,0,0,0,0,0,0,0,-4.1662,-4.1663,0,-4.1758,-4.1759,-4.176,-4.1703,-4.17,-4.1697,-4.1695,-4.1795,-4.18,-4.1806,0,0,0,0,0,0,0,0,0,0,0,0,0,-4.1432,-4.1436,-4.1662,-4.1663,-4.1665,-4.1758,-4.1759,-4.176,-4.1703,-4.17,-4.1697,-4.1694,-4.1794,-4.18,-4.1806,0,0,0,0,0,0,0,0,0,0,0,0,0,-4.153,-4.1438,-4.1662,-4.1647,-4.1647,-4.1757,-4.1759,-4.1761,-4.1704,-4.17,-4.1696,-4.1692,-4.1792,-4.1799,-4.1807,-4.1938,0,0,-4.1831,-4.1834,0,0,0,0,0,0,0,0,-4.1525,-4.1539,-4.1648,-4.1649,-4.1648,-4.1714,-4.1714,-4.182,-4.1705,-4.1683,-4.1695,-4.169,-4.1772,-4.1781,-4.1808,-4.1943,-4.1947,-4.1832,-4.1836,-4.184,-4.1842,0,0,0,0,0,0,0,-4.1518,-4.1534,-4.17,-4.165,-4.165,-4.1636,-4.1646,-4.1734,-4.1749,-4.1684,-4.168,-4.1692,-4.1771,-4.1801,-4.181,-4.1948,-4.1831,-4.1838,-4.1843,-4.1846,-4.2195,-4.2199,0,0,0,0,0,0,-4.1512,-4.1529,-4.1697,-4.1703,-4.1575,-4.1644,-4.1654,-4.1697,-4.1748,-4.1752,-4.1696,-4.1689,-4.1789,-4.1801,-4.1813,-4.197,-4.184,-4.1847,-4.1852,-4.219,-4.2196,-4.2201,0,0,0,0,0,0,-4.1507,-4.1527,-4.1693,-4.1615,-4.1635,-4.1652,-4.1701,-4.1701,-4.1731,-4.1757,-4.1759,-4.1723,-4.1786,-4.1802,-4.1907,-4.1972,-4.1851,-4.1858,-4.2185,-4.2192,-4.2198,-4.2284,0,0,0,0,0,0,-4.1501,-4.1526,-4.1576,-4.1616,-4.1639,-4.1785,-4.1705,-4.1706,-4.1744,-4.1737,-4.1783,-4.1787,-4.1784,-4.1896,-4.1915,-4.1981,-4.1864,-4.2179,-4.2188,-4.2196,-4.2275,-4.2293,-4.2308,0,0,0,0,0,-4.1493,-4.1597,-4.1579,-4.1599,-4.1702,-4.1789,-4.1802,-4.1797,-4.175,-4.18,-4.1816,-4.1785,-4.1962,-4.1907,-4.1928,-4.1998,-4.2175,-4.2186,-4.2195,-4.2268,-4.2289,-4.2307,0,0,0,0,0,0,-4.1564,-4.1602,-4.1582,-4.1702,-4.1743,-4.1779,-4.1842,-4.1819,-4.1875,-4.1866,-4.1857,-4.1868,-4.1977,-4.1998,-4.1936,-4.2127,-4.2061,-4.2076,-4.2109,-4.213,-4.2146,-4.2138,-4.187,0,0,0,0,0,-4.1594,-4.1661,-4.169,-4.1794,-4.1815,-4.1825,-4.1863,-4.1855,-4.1897,-4.1914,-4.1938,-4.1981,-4.2046,-4.2089,-4.215,-4.2278,-4.2287,-4.2336,-4.2352,-4.2365,-4.2379,-4.2447,-4.2469,-4.2234,-4.2234,-4.2234,0,0,-4.1656,-4.1685,-4.1728,-4.1809,-4.1839,-4.1909,-4.184,-4.1918,-4.1969,-4.1926,-4.2026,-4.2046,-4.2092,-4.2209,-4.2262,-4.223,-4.2445,-4.2378,-4.2389,-4.2395,-4.246,-4.2482,-4.2502,-4.2241,-4.224,-4.2239,0,0,-4.1805,-4.1834,-4.1923,-4.1954,-4.2001,-4.2007,-4.2028,-4.2068,-4.2079,-4.2179,-4.2148,-4.221,-4.2322,-4.2356,-4.2388,-4.255,-4.2523,-4.257,-4.2655,-4.2722,-4.274,-4.2757,-4.2814,-4.2834,-4.2583,-4.2583,-4.2583,0,-4.1877,-4.1981,-4.1972,-4.2051,-4.2087,-4.205,-4.214,-4.2172,-4.2236,-4.2262,-4.2225,-4.2365,-4.2394,-4.2517,-4.2557,-4.2584,-4.2608,-4.2565,-4.2738,-4.2755,-4.277,-4.2824,-4.2846,-4.2589,-4.2588,-4.2587,-4.2587,0,-4.2067,-4.2139,-4.2205,-4.2267,-4.2311,-4.2396,-4.2399,-4.2445,-4.2433,-4.2443,-4.2545,-4.2578,-4.2645,-4.2674,-4.2664,-4.2797,-4.2775,-4.2739,-4.2673,-4.2798,-4.2848,-4.2869,-4.2596,-4.2594,-4.2593,-4.2591,0,0,-4.2264,-4.2319,-4.2344,-4.2371,-4.2419,-4.2475,-4.2558,-4.2622,-4.2662,-4.2707,-4.2776,-4.2872,-4.2837,-4.2874,-4.2867,-4.2926,-4.3051,-4.2882,-4.2883,-4.2912,-4.3199,-4.3226,-4.325,-4.3034,-4.3037,-4.3041,-4.3195,0,-4.2416,-4.256,-4.2553,-4.2688,-4.2754,-4.2719,-4.2791,-4.2829,-4.284,-4.2899,-4.2912,-4.2979,-4.2929,-4.2951,-4.3008,-4.3024,-4.3109,-4.3013,-4.3098,-4.3101,-4.3087,-4.3277,-4.3306,-4.345,-4.3215,-4.3218,-4.3221,0,-4.2613,-4.2664,-4.2805,-4.2842,-4.287,-4.2934,-4.2992,-4.3049,-4.309,-4.3095,-4.3135,-4.3118,-4.3202,-4.3134,-4.3249,-4.3184,-4.3219,-4.3232,-4.3237,-4.3245,-4.3168,-4.329,-4.3496,-4.3518,-4.3252,-4.325,-4.3247,0,-4.2742,-4.2847,-4.2944,-4.2968,-4.3015,-4.3061,-4.3082,-4.312,-4.3159,-4.321,-4.3235,-4.3296,-4.3329,-4.3376,-4.3376,-4.3327,-4.3493,-4.3425,-4.3499,-4.3499,-4.3536,-4.3534,-4.3751,-4.3559,-4.3559,-4.3558,-4.3558,0,-4.2913,-4.3,-4.3002,-4.3063,-4.3159,-4.3151,-4.3247,-4.3264,-4.3298,-4.336,-4.3335,-4.3394,-4.3391,-4.3451,-4.3452,-4.3547,-4.3563,-4.3569,-4.3568,-4.3571,-4.357,-4.3593,-4.3583,-4.3564,-4.3563,-4.3561,-4.356,0,-4.3074,-4.3079,-4.3183,-4.3218,-4.3228,-4.3298,-4.3328,-4.3385,-4.3394,-4.3473,-4.3492,-4.3506,-4.3576,-4.358,-4.3661,-4.3662,-4.3777,-4.3766,-4.3763,-4.3761,-4.3834,-4.3827,-4.4073,-4.4105,-4.3893,-4.3895,-4.3897,0,-4.3182,-4.3248,-4.329,-4.3329,-4.3353,-4.3418,-4.3457,-4.3451,-4.3493,-4.3545,-4.3596,-4.3663,-4.3716,-4.3829,-4.3847,-4.3909,-4.3898,-4.3981,-4.3908,-4.3908,-4.3899,-4.3895,-4.3901,-4.3995,-4.3997,-4.3999,-4.4001,0,-4.3374,-4.3372,-4.3429,-4.3488,-4.3535,-4.358,-4.3623,-4.3657,-4.3657,-4.3705,-4.3775,-4.3817,-4.3898,-4.3965,-4.4025,-4.4048,-4.4025,-4.4023,-4.4044,-4.4047,-4.4043,-4.4045,-4.3801,-4.4018,-4.4016,-4.4015,-4.4014,-4.4013,-4.3511,-4.3568,-4.3606,-4.367,-4.3701,-4.3741,-4.3796,-4.3811,-4.3869,-4.3935,-4.3928,-4.4006,-4.4046,-4.4124,-4.4151,-4.4212,-4.4184,-4.4214,-4.4221,-4.4228,-4.4236,-4.4033,-4.4223,-4.4223,-4.4222,-4.4222,-4.4221,0,-4.3701,-4.3723,-4.3782,-4.3842,-4.3892,-4.3865,-4.391,-4.3954,-4.4023,-4.4061,-4.4113,-4.4194,-4.4258,-4.4281,-4.4344,-4.4388,-4.4379,-4.4405,-4.4401,-4.4407,-4.4257,-4.4233,-4.4411,-4.4411,-4.4411,-4.4411,-4.4411,-4.4411,-4.3805,-4.39,-4.3903,-4.4012,-4.4034,-4.4109,-4.4138,-4.4174,-4.4205,-4.4295,-4.4348,-4.4362,-4.4394,-4.4459,-4.4517,-4.4522,-4.4546,-4.4576,-4.4577,-4.4437,-4.4418,-4.4399,-4.4376,-4.4582,-4.4582,-4.4721,-4.4722,-4.4723]},{"header":{"parameterUnit":"m.s-1","parameterCategory":1,"la1":30.2991,"la2":30.254,"lo1":-89.0895,"lo2":-89.0444,"dy":0.0017,"dx":0.0017,"nx":28,"ny":28,"refTime":"2023-11-15T03:00:00:Z","depth":0,"parameterNumber":3,"parameterNumberName":"V-component_of_WINDS"},"data":[0,0,0,0,0,0,0,0,0,0,0,0,0,0,0,0,0,0,0,0,0,0,0,0,0,0,0,0,0,0,0,0,0,0,0,0,0,0,0,0,0,0,0,0,0,0,0,0,0,0,0,0,0,0,0,0,0,0,-7.4064,-7.4066,0,-7.4209,-7.4211,-7.4213,-7.4091,-7.4086,-7.4081,-7.4076,-7.4223,-7.4231,-7.424,0,0,0,0,0,0,0,0,0,0,0,0,0,-7.368,-7.3688,-7.4064,-7.4066,-7.4068,-7.4209,-7.4211,-7.4213,-7.4092,-7.4085,-7.4079,-7.4073,-7.422,-7.423,-7.424,0,0,0,0,0,0,0,0,0,0,0,0,0,-7.3838,-7.369,-7.4064,-7.4024,-7.4022,-7.4209,-7.4211,-7.4214,-7.4093,-7.4085,-7.4078,-7.4071,-7.4216,-7.4229,-7.4242,-7.4475,0,0,-7.4281,-7.4287,0,0,0,0,0,0,0,0,-7.3829,-7.3852,-7.4028,-7.4027,-7.4025,-7.4124,-7.4129,-7.4301,-7.4095,-7.4066,-7.4076,-7.4067,-7.4196,-7.421,-7.4254,-7.4481,-7.4488,-7.4283,-7.429,-7.4296,-7.43,0,0,0,0,0,0,0,-7.3819,-7.3845,-7.4121,-7.4031,-7.4029,-7.3999,-7.4013,-7.4161,-7.4172,-7.4068,-7.4059,-7.4078,-7.4194,-7.4242,-7.4257,-7.449,-7.4282,-7.4294,-7.4302,-7.4307,-7.492,-7.4928,0,0,0,0,0,0,-7.3812,-7.3837,-7.4117,-7.4126,-7.3907,-7.4012,-7.4028,-7.41,-7.417,-7.4173,-7.4085,-7.4072,-7.4223,-7.4242,-7.4261,-7.4542,-7.4296,-7.4308,-7.4316,-7.4911,-7.4921,-7.4931,0,0,0,0,0,0,-7.3804,-7.3838,-7.4111,-7.3979,-7.4012,-7.4027,-7.4109,-7.4107,-7.4155,-7.4183,-7.4184,-7.4132,-7.4218,-7.4243,-7.4424,-7.4545,-7.4314,-7.4326,-7.4901,-7.4914,-7.4926,-7.5104,0,0,0,0,0,0,-7.3794,-7.3836,-7.3925,-7.3982,-7.4019,-7.4272,-7.4116,-7.4115,-7.4178,-7.4163,-7.4228,-7.4231,-7.4214,-7.4405,-7.4437,-7.4559,-7.4336,-7.489,-7.4907,-7.4922,-7.5087,-7.5121,-7.515,0,0,0,0,0,-7.378,-7.3968,-7.393,-7.3964,-7.4131,-7.4279,-7.43,-7.4277,-7.4188,-7.4278,-7.4296,-7.4229,-7.4526,-7.4424,-7.4459,-7.4587,-7.4883,-7.4902,-7.4921,-7.5073,-7.5115,-7.5149,0,0,0,0,0,0,-7.3923,-7.3974,-7.3933,-7.4145,-7.4209,-7.4258,-7.437,-7.4321,-7.4411,-7.4393,-7.436,-7.4376,-7.4567,-7.4594,-7.448,-7.4818,-7.469,-7.4717,-7.4794,-7.4834,-7.4864,-7.4856,-7.4347,0,0,0,0,0,-7.3979,-7.4095,-7.4134,-7.4317,-7.4351,-7.4356,-7.4419,-7.4396,-7.4461,-7.4487,-7.4518,-7.4583,-7.4691,-7.4763,-7.4863,-7.5089,-7.5104,-7.5195,-7.5226,-7.5252,-7.5277,-7.5402,-7.5445,-7.4993,-7.4993,-7.4993,0,0,-7.4096,-7.4138,-7.4214,-7.4347,-7.4393,-7.4516,-7.4379,-7.4513,-7.4604,-7.4507,-7.4681,-7.4706,-7.4776,-7.4982,-7.5073,-7.501,-7.5404,-7.5276,-7.5296,-7.5308,-7.5426,-7.5469,-7.5507,-7.5006,-7.5004,-7.5002,0,0,-7.4373,-7.4415,-7.4575,-7.4625,-7.4698,-7.47,-7.4738,-7.4796,-7.481,-7.4984,-7.4915,-7.5021,-7.5207,-7.5262,-7.5314,-7.5613,-7.5557,-7.5646,-7.5812,-7.5935,-7.5971,-7.6002,-7.6114,-7.6153,-7.567,-7.5671,-7.5671,0,-7.4509,-7.4691,-7.4662,-7.4803,-7.4865,-7.4783,-7.4946,-7.4995,-7.5097,-7.5142,-7.5069,-7.5304,-7.5344,-7.5564,-7.5638,-7.568,-7.5725,-7.5641,-7.5968,-7.5999,-7.6028,-7.6134,-7.6176,-7.5682,-7.568,-7.5679,-7.5678,0,-7.4857,-7.4984,-7.5104,-7.5208,-7.5282,-7.5432,-7.5427,-7.5505,-7.5476,-7.5486,-7.5666,-7.5712,-7.5823,-7.5872,-7.5844,-7.6089,-7.6048,-7.5972,-7.5844,-7.6083,-7.6182,-7.6222,-7.5697,-7.5693,-7.569,-7.5687,0,0,-7.5229,-7.5316,-7.5361,-7.5409,-7.5484,-7.5582,-7.5729,-7.5838,-7.5909,-7.5981,-7.6106,-7.6266,-7.6198,-7.6257,-7.6233,-7.6341,-7.6581,-7.6252,-7.6253,-7.6316,-7.6859,-7.6919,-7.6967,-7.6542,-7.6549,-7.6555,-7.6855,0,-7.5513,-7.5771,-7.575,-7.5994,-7.6114,-7.6039,-7.6167,-7.6228,-7.6241,-7.6344,-7.6357,-7.6474,-7.6372,-7.6408,-7.651,-7.653,-7.669,-7.6507,-7.666,-7.6666,-7.665,-7.7017,-7.7081,-7.7362,-7.6893,-7.6899,-7.6904,0,-7.5879,-7.5968,-7.6225,-7.6285,-7.6334,-7.6451,-7.6551,-7.6649,-7.6717,-7.6719,-7.6787,-7.6746,-7.6896,-7.6761,-7.6969,-7.6845,-7.6906,-7.6925,-7.6935,-7.6952,-7.6803,-7.7049,-7.745,-7.7494,-7.6964,-7.6959,-7.6954,0,-7.6131,-7.6313,-7.6492,-7.6534,-7.6608,-7.6693,-7.6727,-7.6787,-7.6855,-7.6942,-7.6987,-7.709,-7.7147,-7.7228,-7.7217,-7.7119,-7.743,-7.7293,-7.7439,-7.744,-7.7511,-7.7508,-7.7933,-7.7542,-7.7542,-7.7541,-7.754,0,-7.6452,-7.6614,-7.6607,-7.6718,-7.6897,-7.687,-7.7048,-7.7073,-7.7127,-7.7242,-7.7181,-7.729,-7.7266,-7.7375,-7.7366,-7.7542,-7.7567,-7.7575,-7.7572,-7.7584,-7.7583,-7.7626,-7.7609,-7.7552,-7.755,-7.7547,-7.7545,0,-7.6766,-7.6767,-7.6958,-7.7013,-7.703,-7.7161,-7.7208,-7.7313,-7.7321,-7.7467,-7.7499,-7.7513,-7.7638,-7.7634,-7.7774,-7.7769,-7.7987,-7.7958,-7.7965,-7.7961,-7.8109,-7.8098,-7.858,-7.8645,-7.8208,-7.8212,-7.8216,0,-7.6973,-7.7096,-7.7166,-7.7239,-7.728,-7.7397,-7.7468,-7.7446,-7.7522,-7.761,-7.7705,-7.7825,-7.792,-7.8123,-7.8145,-7.8254,-7.8231,-7.8392,-7.8247,-7.8256,-7.824,-7.8235,-7.8249,-7.8422,-7.8427,-7.8431,-7.8434,0,-7.7344,-7.7339,-7.7443,-7.7549,-7.7635,-7.7717,-7.7792,-7.7855,-7.7842,-7.793,-7.8058,-7.8132,-7.8278,-7.8399,-7.8503,-7.8538,-7.8487,-7.848,-7.852,-7.8536,-7.8538,-7.8545,-7.8049,-7.847,-7.8466,-7.8464,-7.8462,-7.846,-7.7614,-7.7721,-7.7788,-7.7907,-7.7962,-7.8034,-7.8137,-7.8159,-7.8266,-7.8384,-7.8364,-7.8509,-7.8575,-7.871,-7.8755,-7.8869,-7.8812,-7.8869,-7.8884,-7.89,-7.892,-7.8516,-7.8887,-7.8885,-7.8885,-7.8884,-7.8883,0,-7.7986,-7.8025,-7.8135,-7.8243,-7.8338,-7.8279,-7.836,-7.8443,-7.8572,-7.8638,-7.8734,-7.8883,-7.9,-7.9032,-7.9146,-7.9231,-7.921,-7.9262,-7.9258,-7.9268,-7.8961,-7.8918,-7.9277,-7.9277,-7.9277,-7.9277,-7.9277,-7.9277,-7.819,-7.8371,-7.8375,-7.8582,-7.862,-7.8763,-7.8815,-7.8882,-7.8935,-7.9105,-7.9203,-7.9223,-7.9277,-7.9395,-7.9501,-7.9507,-7.9554,-7.9617,-7.9615,-7.9328,-7.9289,-7.9252,-7.9211,-7.9626,-7.9626,-7.9913,-7.9915,-7.9917]}]]